User: anonymous   Login
Location: Unspecified
(0.0000°N, 0.0000°E)
Time: 01:52:40
(UTC+00:00)
Language:

MERIDIAN 3 - Orbit

View from above orbital plane
View from above orbital plane
View from above satellite
View from above satellite

Ground track
Ground track

The orbit data is extracted from the following two-line orbital elements,

1 37212U 10058A   21135.41953097  .00000148  00000-0  00000-0 0  9992
2 37212  63.5458 265.9546 6682145 272.6921  21.7344  2.00619323 77175
Epoch (UTC): 15 May 2021 10:04:07
Eccentricity: 0.6682145
inclination: 63.5458°
perigee height: 2432 km
apogee height: 37921 km
right ascension of ascending node: 265.9546°
argument of perigee: 272.6921°
revolutions per day: 2.00619323
mean anomaly at epoch: 21.7344°
orbit number at epoch: 7717

The dashed part of the orbit path shows where the satellite is in the earth's shadow,  

DLR